N9PBY-2 Weather Reports


Display with metric or nautical units.
time (UTC)temp
F
wind
direction
speed
MPH
gust
MPH
rain 1hr
in
rain 24hr
in
rain mn
in
humidity
%
barometer
mb
20190418162006 44 331 2.0 6.0 0.00 0.24 0.00 87 1003.3
20190418161006 44 314 2.0 8.0 0.00 0.24 0.00 87 1003.4
20190418160006 44 332 2.0 8.0 0.00 0.24 0.00 86 1003.3
20190418155005 43 324 2.0 7.0 0.00 0.24 0.00 87 1003.3
20190418154005 44 332 2.0 8.0 0.00 0.24 0.00 87 1003.2
20190418153006 44 316 3.0 8.0 0.00 0.24 0.00 86 1002.9
20190418152006 44 309 2.0 9.0 0.00 0.24 0.00 87 1002.4
20190418151006 44 320 3.0 8.0 0.00 0.24 0.00 86 1002.1
20190418150006 44 325 3.0 10.0 0.00 0.24 0.00 86 1001.6
20190418145005 45 324 3.0 10.0 0.00 0.24 0.00 86 1001.5
20190418144005 45 323 3.0 10.0 0.00 0.24 0.00 86 1001.5
20190418143006 45 342 4.0 11.0 0.00 0.24 0.00 87 1001.3
20190418142005 45 351 3.0 13.0 0.00 0.24 0.00 87 1000.8
20190418141005 46 339 3.0 13.0 0.00 0.24 0.00 86 1000.5
20190418140006 46 346 3.0 13.0 0.00 0.24 0.00 86 1000.5
20190418135006 46 326 3.0 9.0 0.00 0.24 0.00 85 1000.6
20190418134008 46 313 4.0 12.0 0.00 0.24 0.00 85 1001.2
20190418133006 46 330 3.0 8.0 0.00 0.24 0.00 85 1000.6
20190418132005 46 317 2.0 7.0 0.00 0.24 0.00 85 1000.5
20190418131005 46 287 2.0 9.0 0.00 0.24 0.00 85 1000.9
20190418130005 47 324 3.0 10.0 0.00 0.24 0.00 84 1000.2
20190418125006 47 308 2.0 8.0 0.00 0.24 0.00 85 1000.4
20190418124005 47 301 3.0 10.0 0.00 0.24 0.00 85 1000.9
20190418123005 47 306 2.0 9.0 0.00 0.24 0.00 85 1001.0
20190418122007 47 291 2.0 8.0 0.00 0.24 0.00 85 1001.0
20190418121005 47 285 2.0 8.0 0.00 0.24 0.00 85 1001.1
20190418120006 47 269 2.0 7.0 0.00 0.24 0.00 86 1001.2
20190418115005 47 288 2.0 6.0 0.00 0.24 0.00 86 1001.0
20190418114005 47 272 2.0 10.0 0.00 0.24 0.00 86 1001.1
20190418113005 47 278 3.0 8.0 0.00 0.24 0.00 86 1000.9
20190418112005 47 266 3.0 7.0 0.00 0.24 0.00 86 1000.8
20190418111005 48 270 3.0 11.0 0.00 0.24 0.00 86 1000.3
20190418110005 48 267 2.0 6.0 0.00 0.24 0.00 86 1000.3
20190418105005 48 297 2.0 7.0 0.00 0.24 0.00 85 1000.0
20190418104005 49 270 3.0 9.0 0.00 0.24 0.00 85 999.8
20190418103005 49 268 3.0 8.0 0.00 0.24 0.00 86 999.8
20190418102005 50 281 3.0 8.0 0.00 0.24 0.00 86 999.8
20190418101005 50 252 2.0 11.0 0.00 0.24 0.00 87 999.7
20190418100005 50 264 2.0 7.0 0.00 0.24 0.00 87 999.5
20190418095006 51 266 2.0 6.0 0.00 0.24 0.00 87 999.5
20190418094006 51 283 2.0 9.0 0.00 0.24 0.00 87 999.4
20190418093006 51 274 2.0 7.0 0.00 0.24 0.00 87 999.1
20190418092005 52 275 2.0 8.0 0.00 0.24 0.00 87 999.4
20190418091005 52 279 2.0 7.0 0.00 0.24 0.00 87 999.6
20190418090007 52 266 2.0 7.0 0.00 0.24 0.00 87 1000.0
20190418085005 53 278 4.0 11.0 0.00 0.24 0.00 86 1000.1
20190418084005 53 284 3.0 9.0 0.00 0.24 0.00 87 1000.0
20190418083006 53 287 3.0 9.0 0.00 0.24 0.00 87 999.5
20190418082005 54 270 3.0 8.0 0.00 0.24 0.00 87 999.1
20190418081005 55 295 4.0 13.0 0.00 0.24 0.00 86 998.8
20190418080006 57 276 4.0 10.0 0.00 0.24 0.00 85 998.5
20190418075005 57 261 6.0 16.0 0.00 0.24 0.00 86 998.6
20190418074005 57 252 5.0 12.0 0.00 0.24 0.00 87 998.9
20190418073006 57 254 4.0 12.0 0.00 0.24 0.00 87 998.9
20190418072006 57 258 5.0 13.0 0.00 0.24 0.00 86 998.8
20190418071006 57 253 4.0 9.0 0.00 0.24 0.00 87 998.5
20190418070007 58 254 5.0 12.0 0.00 0.24 0.00 86 998.6
20190418065006 58 253 6.0 15.0 0.00 0.24 0.00 86 998.7
20190418064006 58 262 7.0 20.0 0.00 0.24 0.00 86 998.6
20190418063006 58 261 7.0 16.0 0.00 0.24 0.00 86 998.4
20190418062007 58 263 7.0 20.0 0.00 0.24 0.00 85 998.3
20190418061006 58 263 6.0 13.0 0.00 0.24 0.00 87 998.1
20190418060007 58 257 5.0 14.0 0.00 0.24 0.00 87 998.0
20190418055008 59 260 7.0 19.0 0.00 0.24 0.00 87 998.1
20190418054007 59 262 7.0 15.0 0.00 0.24 0.00 89 998.1
20190418053007 58 257 6.0 20.0 0.00 0.24 0.00 92 998.1
20190418052006 56 254 5.0 15.0 0.00 0.24 0.00 92 998.4
20190418051007 53 273 1.0 4.0 0.00 0.24 0.00 91 998.3
20190418050008 52 249 1.0 4.0 0.00 0.24 0.00 91 998.1
20190418045007 52 235 1.0 3.0 0.00 0.24 0.24 91 997.9
20190418044007 52 235 2.0 3.0 0.00 0.24 0.24 91 997.9
20190418043006 51 235 1.0 3.0 0.00 0.24 0.24 90 997.8
20190418042007 51 234 1.0 3.0 0.03 0.24 0.24 90 997.9
20190418041007 51 221 2.0 6.0 0.06 0.24 0.24 90 998.2
20190418040007 52 230 3.0 6.0 0.06 0.24 0.24 89 998.4
20190418035007 52 256 2.0 7.0 0.06 0.24 0.24 90 998.9
20190418034007 51 264 2.0 5.0 0.06 0.24 0.24 89 998.6
20190418033006 52 284 2.0 5.0 0.06 0.24 0.24 88 998.6
20190418032007 52 236 4.0 7.0 0.03 0.21 0.21 88 998.9
20190418031007 52 202 4.0 7.0 0.00 0.18 0.18 86 998.8
20190418030007 50 190 4.0 7.0 0.00 0.18 0.18 87 998.6
20190418025006 50 189 5.0 9.0 0.00 0.18 0.18 86 998.8
20190418024007 49 184 6.0 10.0 0.00 0.18 0.18 87 999.0
20190418023007 48 183 5.0 10.0 0.00 0.18 0.18 87 999.1
20190418022006 48 176 4.0 9.0 0.00 0.18 0.18 87 999.2
20190418021007 48 183 4.0 7.0 0.00 0.18 0.18 87 999.4
20190418020007 47 173 4.0 8.0 0.00 0.18 0.18 87 999.4
20190418015007 47 168 5.0 9.0 0.00 0.18 0.18 87 999.5
20190418014007 48 168 6.0 10.0 0.00 0.18 0.18 87 999.5
20190418013008 47 169 5.0 11.0 0.00 0.18 0.18 87 999.7
20190418012007 47 163 5.0 10.0 0.00 0.18 0.18 87 999.6
20190418011006 47 162 5.0 10.0 0.00 0.18 0.18 88 1000.0
20190418010007 46 167 4.0 10.0 0.00 0.18 0.18 88 1000.2
20190418005007 46 167 5.0 10.0 0.00 0.18 0.18 88 1000.3
20190418004007 46 156 5.0 10.0 0.00 0.18 0.18 88 1000.6
20190418003007 46 155 5.0 11.0 0.00 0.18 0.18 88 1000.8
20190418002006 46 147 5.0 11.0 0.00 0.18 0.18 88 1000.8
20190418001007 45 152 5.0 10.0 0.00 0.18 0.18 88 1001.1
20190418000007 45 154 6.0 12.0 0.00 0.18 0.18 87 1001.4
20190417235007 46 153 7.0 13.0 0.00 0.18 0.18 87 1001.7
20190417234006 46 153 6.0 15.0 0.00 0.18 0.18 87 1002.0
20190417233006 46 145 6.0 11.0 0.00 0.18 0.18 87 1002.5
20190417232007 46 145 5.0 13.0 0.00 0.18 0.18 87 1002.7
20190417231007 46 148 6.0 13.0 0.00 0.18 0.18 87 1003.0
20190417230007 46 137 6.0 13.0 0.00 0.18 0.18 87 1003.2
20190417225007 47 132 5.0 13.0 0.00 0.18 0.18 88 1003.4
20190417224008 46 120 6.0 14.0 0.00 0.18 0.18 88 1003.5
20190417223006 46 126 6.0 15.0 0.00 0.18 0.18 88 1003.7
20190417222006 46 120 6.0 15.0 0.00 0.18 0.18 88 1004.3
20190417221007 46 120 5.0 13.0 0.00 0.18 0.18 88 1004.3
20190417220007 46 119 6.0 14.0 0.00 0.18 0.18 88 1004.6
20190417215006 46 129 6.0 14.0 0.00 0.18 0.18 89 1005.0
20190417214006 46 126 7.0 14.0 0.00 0.18 0.18 89 1005.1
20190417213007 46 120 7.0 15.0 0.00 0.18 0.18 89 1005.4
20190417212006 45 122 5.0 14.0 0.00 0.18 0.18 90 1005.7
20190417211007 44 112 6.0 14.0 0.00 0.18 0.18 90 1005.8
20190417210007 44 109 6.0 16.0 0.00 0.18 0.18 90 1006.3
20190417205007 44 113 6.0 16.0 0.00 0.18 0.18 90 1006.8
20190417204007 44 116 7.0 14.0 0.00 0.18 0.18 90 1007.1
20190417203006 44 113 7.0 15.0 0.01 0.18 0.18 91 1007.2
20190417202057 44 110 8.0 18.0 0.01 0.18 0.18 91 1007.3
20190417201006 45 120 8.0 16.0 0.01 0.18 0.18 91 1007.6
20190417200007 45 117 8.0 19.0 0.01 0.18 0.18 91 1007.7
20190417195007 44 119 9.0 19.0 0.02 0.18 0.18 91 1008.1
20190417194007 43 114 8.0 16.0 0.02 0.18 0.18 91 1008.2
20190417193007 42 123 7.0 15.0 0.04 0.17 0.17 91 1009.1
20190417192007 43 117 7.0 14.0 0.08 0.17 0.17 91 1009.4
20190417191007 43 114 8.0 17.0 0.10 0.17 0.17 91 1009.6
20190417190007 43 115 6.0 12.0 0.10 0.17 0.17 91 1009.7
20190417185007 42 118 7.0 18.0 0.09 0.16 0.16 91 1009.9
20190417184006 42 120 7.0 14.0 0.09 0.16 0.16 91 1010.1
20190417183007 41 102 8.0 16.0 0.06 0.13 0.13 91 1010.2
20190417182007 41 119 5.0 13.0 0.02 0.09 0.09 91 1009.7
20190417181007 42 107 6.0 13.0 0.00 0.07 0.07 92 1010.5
20190417180018 42 107 6.0 14.0 0.00 0.07 0.07 91 1011.4
20190417175007 41 106 5.0 13.0 0.01 0.07 0.07 91 1011.6
20190417174007 41 131 3.0 9.0 0.04 0.07 0.07 91 1012.1
20190417173007 41 113 6.0 13.0 0.06 0.07 0.07 91 1012.3
20190417172007 41 103 7.0 17.0 0.07 0.07 0.07 91 1011.3
20190417171007 40 102 6.0 15.0 0.07 0.07 0.07 91 1011.5
20190417170006 40 103 7.0 16.0 0.07 0.07 0.07 91 1011.9
20190417165006 40 89 6.0 18.0 0.06 0.06 0.06 91 1012.3
20190417164006 40 91 5.0 15.0 0.03 0.03 0.03 91 1012.1
20190417163029 40 127 4.0 10.0 0.01 0.01 0.01 91 1014.3